McComb, MS

7:03 AM CDT on April 27, 2017 (GMT -0500)
McComb-Pike County-Lewis

Weather History for KMCB - May, 2013

Change the Weather History Date:

Thursday, May 16, 2013

  Actual Average Record
Temperature  
Mean Temperature 68 °F -  
Max Temperature 81 °F 83 °F 92 °F (1963)
Min Temperature 57 °F 59 °F 45 °F (1973)
Cooling Degree Days 4    
Growing Degree Days 18 (Base 50)    
Moisture  
Dew Point 61 °F    
Average Humidity 80    
Maximum Humidity 100    
Minimum Humidity 50    
Precipitation  
Precipitation 0.00 in - - ()
Sea Level Pressure  
Sea Level Pressure 29.99 in    
Wind  
Wind Speed 3 mph (SSE)    
Max Wind Speed 14 mph    
Max Gust Speed 22 mph    
Visibility 8 miles    
Events Thunderstorm    
Averages and records for this station are not official NWS values.
T = Trace of Precipitation, MM = Missing Value Source: NWS Daily Summary

Daily Weather History Graph

Daily Weather History Graph

Search for Another Location

Airport or City:

Trip Planner

Search our weather history database for the weather conditions in past years. The results will help you decide how hot, cold, wet, or windy it might be!

Date:

Astronomy

May. 16, 2013 Rise Set
Actual Time 6:05 AM CDT 7:51 PM CDT
Civil Twilight 5:38 AM CDT 8:18 PM CDT
Nautical Twilight 5:06 AM CDT 8:50 PM CDT
Astronomical Twilight 4:32 AM CDT 9:24 PM CDT
Moon 11:31 AM CDT (5/16) 12:18 AM CDT (5/16)
Length of Visible Light 14h 39m
Length of Day
13h 46m
Waxing Crescent, 36% of the Moon is Illuminated
May 16
Waxing Crescent
May 17
First Quarter
May 24
Full
May 31
Last Quarter
Jun 8
New

Hourly Weather History & Observations

Time (CDT) Temp. Heat Index Dew Point Humidity Pressure Visibility Wind Dir Wind Speed Gust Speed Precip Events Conditions
12:53 AM 61.0 °F - 57.9 °F 90% 30.04 in 10.0 mi Calm Calm - N/A   Clear
1:53 AM 60.1 °F - 57.0 °F 90% 30.01 in 10.0 mi Calm Calm - N/A   Clear
2:53 AM 60.1 °F - 57.0 °F 90% 30.01 in 10.0 mi Calm Calm - N/A   Partly Cloudy
3:53 AM 57.0 °F - 55.9 °F 96% 30.01 in 3.0 mi Calm Calm - N/A   Clear
4:53 AM 57.9 °F - 55.9 °F 93% 29.99 in 4.0 mi Calm Calm - N/A   Mostly Cloudy
5:53 AM 59.0 °F - 57.0 °F 93% 29.99 in 4.0 mi Calm Calm - N/A   Clear
6:15 AM 57.2 °F - 57.2 °F 100% 30.01 in 1.8 mi Calm Calm - N/A   Clear
6:34 AM 57.2 °F - 57.2 °F 100% 30.01 in 2.5 mi SSE 3.5 mph - N/A   Clear
6:45 AM 60.8 °F - 57.2 °F 88% 30.01 in 4.0 mi SSE 3.5 mph - N/A   Clear
6:53 AM 61.0 °F - 59.0 °F 93% 30.00 in 4.0 mi SSE 3.5 mph - N/A   Clear
7:20 AM 62.6 °F - 62.6 °F 100% 30.02 in 6.0 mi SSE 4.6 mph - N/A Thunderstorm Mostly Cloudy
7:35 AM 64.4 °F - 62.6 °F 94% 30.02 in 7.0 mi SE 3.5 mph - N/A   Mostly Cloudy
7:53 AM 64.9 °F - 63.0 °F 93% 30.02 in 5.0 mi Calm Calm - N/A Thunderstorm Scattered Clouds
8:17 AM 66.2 °F - 64.4 °F 94% 30.04 in 7.0 mi SSE 3.5 mph - N/A Thunderstorm Mostly Cloudy
8:31 AM 66.2 °F - 64.4 °F 94% 30.05 in 9.0 mi Calm Calm - N/A   Overcast
8:53 AM 68.0 °F - 64.9 °F 90% 30.05 in 10.0 mi South 5.8 mph - N/A   Overcast
9:02 AM 69.8 °F - 64.4 °F 83% 30.06 in 10.0 mi South 5.8 mph - N/A   Overcast
10:53 AM 73.9 °F - 64.9 °F 73% 30.02 in 10.0 mi South 11.5 mph - N/A   Unknown
11:53 AM 77.0 °F - 62.1 °F 60% 29.99 in 10.0 mi South 12.7 mph 19.6 mph N/A   Unknown
12:53 PM 80.1 °F 81.2 °F 62.1 °F 54% 29.97 in 10.0 mi SSE 13.8 mph 19.6 mph N/A   Clear
1:53 PM 80.1 °F 80.9 °F 60.1 °F 50% 29.96 in 10.0 mi South 12.7 mph - N/A   Unknown
2:53 PM 78.1 °F - 59.0 °F 52% 29.96 in 10.0 mi South 8.1 mph - N/A   Partly Cloudy
3:53 PM 77.0 °F - 62.1 °F 60% 29.94 in 10.0 mi SSE 8.1 mph - N/A   Clear
4:53 PM 80.1 °F 81.2 °F 62.1 °F 54% 29.92 in 10.0 mi South 13.8 mph 21.9 mph N/A   Clear
5:53 PM 80.1 °F 81.5 °F 63.0 °F 56% 29.91 in 10.0 mi South 8.1 mph - N/A   Partly Cloudy
6:53 PM 78.1 °F - 63.0 °F 60% 29.91 in 10.0 mi South 8.1 mph - N/A   Clear
7:53 PM 75.0 °F - 63.0 °F 66% 29.93 in 10.0 mi SSE 5.8 mph - N/A   Clear
8:53 PM 73.0 °F - 63.0 °F 71% 29.91 in 10.0 mi SSE 12.7 mph - N/A   Clear
9:53 PM 72.0 °F - 64.9 °F 78% 29.94 in 10.0 mi South 9.2 mph - N/A   Clear
10:53 PM 70.0 °F - 66.0 °F 87% 29.95 in 10.0 mi SSE 5.8 mph - N/A   Partly Cloudy
11:53 PM 70.0 °F - 66.0 °F 87% 29.95 in 10.0 mi South 5.8 mph - N/A   Partly Cloudy